Weather History for KFAF - November, 2013

Change the Weather History Date:

Friday, November 22, 2013

  Actual Average Record
Temperature  
Mean Temperature 58 °F -  
Max Temperature 71 °F 58 °F 73 °F (1999)
Min Temperature 46 °F 40 °F 24 °F (2000)
Degree Days  
Heating Degree Days 6    
Growing Degree Days 8 (Base 50)    
Moisture  
Dew Point 53 °F    
Average Humidity 88    
Maximum Humidity 100    
Minimum Humidity 64    
Precipitation  
Precipitation 0.00 in - - ()
Sea Level Pressure  
Sea Level Pressure 30.18 in    
Wind  
Wind Speed 4 mph (SW)    
Max Wind Speed 8 mph    
Max Gust Speed -    
Visibility 8 miles    
Events Fog , Rain    
Averages and records for this station are not official NWS values.
T = Trace of Precipitation, MM = Missing Value Source: NWS Daily Summary

Daily Weather History Graph

Daily Weather History Graph

Search for Another Location

Airport or City:

Trip Planner

Search our weather history database for the weather conditions in past years. The results will help you decide how hot, cold, wet, or windy it might be!

Date:

Astronomy

Nov. 22, 2013 Rise Set
Actual Time 6:52 AM EST 4:52 PM EST
Civil Twilight 6:24 AM EST 5:20 PM EST
Nautical Twilight 5:52 AM EST 5:52 PM EST
Astronomical Twilight 5:21 AM EST 6:23 PM EST
Moon 9:20 PM EST (11/22) 10:36 AM EST (11/22)
Length of Visible Light 10h 55m
Length of Day
9h 59m
Waning Gibbous, 78% of the Moon is Illuminated
Nov 22
Waning Gibbous
Nov 25
Last Quarter
Dec 2
New
Dec 9
First Quarter
Dec 17
Full

Hourly Weather History & Observations

Time (EST) Temp. Dew Point Humidity Pressure Visibility Wind Dir Wind Speed Gust Speed Precip Events Conditions
12:58 AM 47.1 °F 45.9 °F 95% 30.38 in 10.0 mi WNW 3.5 mph - -   Mostly Cloudy
1:58 AM 49.3 °F 48.0 °F 95% 30.38 in 10.0 mi WNW 1.2 mph - -   Overcast
2:58 AM 48.2 °F 47.1 °F 96% 30.36 in 9.0 mi Calm Calm - N/A   Mostly Cloudy
3:58 AM 48.9 °F 47.8 °F 96% 30.33 in 10.0 mi NNW 1.2 mph - -   Mostly Cloudy
4:58 AM 48.9 °F 47.8 °F 96% 30.33 in 10.0 mi South 2.3 mph - N/A   Overcast
5:53 AM 48.2 °F 48.2 °F 100% 30.30 in 2.5 mi South 2.3 mph - N/A   Clear
5:58 AM 48.0 °F 47.3 °F 97% 30.31 in 1.8 mi South 2.3 mph - N/A   Clear
6:03 AM 48.2 °F 46.4 °F 93% 30.30 in 2.5 mi South 3.5 mph - N/A   Partly Cloudy
6:08 AM 48.2 °F 46.4 °F 93% 30.30 in 4.0 mi South 2.3 mph - N/A   Partly Cloudy
6:13 AM 48.2 °F 46.4 °F 93% 30.30 in 2.5 mi SSW 1.2 mph - N/A   Partly Cloudy
6:18 AM 48.2 °F 46.4 °F 93% 30.30 in 1.8 mi SSW 1.2 mph - N/A   Partly Cloudy
6:33 AM 46.4 °F 46.4 °F 100% 30.29 in 2.0 mi SSE 2.3 mph - N/A   Scattered Clouds
6:38 AM 46.4 °F 46.4 °F 100% 30.29 in 2.0 mi South 2.3 mph - N/A   Mostly Cloudy
6:55 AM 46.4 °F 45.9 °F 98% 30.30 in 3.0 mi Calm Calm - N/A   Scattered Clouds
7:58 AM 50.0 °F 50.0 °F 100% 30.30 in 10.0 mi South 2.3 mph - N/A   Mostly Cloudy
8:03 AM 50.0 °F 50.0 °F 100% 30.29 in 9.0 mi South 3.5 mph - N/A   Mostly Cloudy
8:17 AM 51.8 °F 50.0 °F 94% 30.30 in 1.5 mi SW 4.6 mph - N/A   Overcast
8:25 AM 51.8 °F 50.0 °F 94% 30.30 in 0.8 mi SW 5.8 mph - N/A   Mist
8:34 AM 51.8 °F 50.0 °F 94% 30.30 in 0.5 mi SW 4.6 mph - N/A Fog Fog
8:55 AM 51.8 °F 50.9 °F 97% 30.30 in 0.8 mi WSW 3.5 mph - N/A   Mist
9:25 AM 51.8 °F 51.8 °F 100% 30.28 in 3.0 mi SW 5.8 mph - N/A   Overcast
9:58 AM 53.4 °F 52.9 °F 98% 30.28 in 10.0 mi Variable 4.6 mph - -   Overcast
10:08 AM 53.6 °F 53.6 °F 100% 30.27 in 10.0 mi SW 4.6 mph - N/A   Overcast
10:38 AM 55.4 °F 55.4 °F 100% 30.25 in 10.0 mi SW 6.9 mph - N/A   Mostly Cloudy
10:58 AM 56.8 °F 55.4 °F 95% 30.25 in 10.0 mi South 8.1 mph - N/A   Mostly Cloudy
11:58 AM 61.9 °F 55.6 °F 80% 30.20 in 10.0 mi South 5.8 mph - -   Mostly Cloudy
12:58 PM 68.5 °F 57.4 °F 67% 30.17 in 10.0 mi SSW 6.9 mph - N/A   Clear
1:58 PM 70.3 °F 57.9 °F 65% 30.13 in 10.0 mi SW 8.1 mph - -   Clear
2:58 PM 71.6 °F 58.8 °F 64% 30.12 in 10.0 mi WSW 6.9 mph - N/A   Mostly Cloudy
3:58 PM 68.5 °F 57.7 °F 68% 30.10 in 10.0 mi SW 8.1 mph - N/A   Partly Cloudy
4:58 PM 66.7 °F 57.4 °F 72% 30.08 in 10.0 mi Variable 5.8 mph - N/A   Clear
5:58 PM 65.5 °F 57.2 °F 75% 30.07 in 10.0 mi Variable 6.9 mph - N/A   Scattered Clouds
6:58 PM 65.5 °F 57.6 °F 76% 30.06 in 10.0 mi Variable 5.8 mph - N/A   Overcast
7:59 PM 65.1 °F 57.6 °F 76% 30.05 in 10.0 mi SW 6.9 mph - N/A   Overcast
8:58 PM 64.9 °F 57.7 °F 77% 30.03 in 10.0 mi SW 8.1 mph - N/A   Overcast
9:34 PM 64.4 °F 57.2 °F 77% 30.02 in 10.0 mi WSW 5.8 mph - N/A   Heavy Drizzle
9:47 PM 64.4 °F 57.2 °F 77% 30.02 in 10.0 mi SW 4.6 mph - N/A   Mostly Cloudy
9:55 PM 64.4 °F 57.2 °F 77% 30.02 in 10.0 mi Variable 4.6 mph - N/A   Light Drizzle
9:58 PM 64.4 °F 57.2 °F 77% 30.03 in 10.0 mi Variable 4.6 mph - N/A   Light Drizzle
10:04 PM 64.4 °F 57.2 °F 77% 30.02 in 10.0 mi WSW 4.6 mph - N/A   Mostly Cloudy
10:30 PM 64.4 °F 59.0 °F 83% 30.01 in 10.0 mi Variable 5.8 mph - N/A   Drizzle
10:40 PM 62.6 °F 59.0 °F 88% 30.01 in 10.0 mi SW 4.6 mph - N/A   Mostly Cloudy
10:46 PM 62.6 °F 59.0 °F 88% 30.02 in 10.0 mi Variable 4.6 mph - N/A   Light Drizzle
10:55 PM 62.6 °F 59.0 °F 88% 30.02 in 10.0 mi Variable 4.6 mph - N/A   Mostly Cloudy
10:58 PM 62.6 °F 59.0 °F 88% 30.03 in 10.0 mi SW 4.6 mph - N/A   Mostly Cloudy
11:16 PM 62.6 °F 59.0 °F 88% 30.02 in 10.0 mi WSW 6.9 mph - N/A Rain Light Rain
11:50 PM 62.6 °F 59.0 °F 88% 30.02 in 10.0 mi Variable 4.6 mph - N/A   Overcast
11:58 PM 61.9 °F 59.0 °F 90% 30.03 in 10.0 mi Variable 2.3 mph - N/A   Mostly Cloudy